User: anonymous   Login
Location: Lima
(44.6384°N, 112.5920°W)
Time: 05:36:51
(UTC+00:00)
Language:

ZACube-1 - Orbit

View from above orbital plane
View from above orbital plane
View from above satellite
View from above satellite

Ground track
Ground track

The orbit data is extracted from the following two-line orbital elements,

1 39417U 13066B   24106.41530353  .00009387  00000-0  99622-3 0  9995
2 39417  97.7287  63.8541 0051918  10.3621 349.8653 14.88266425562243
Epoch (UTC): 15 April 2024 09:58:02
Eccentricity: 0.0051918
inclination: 97.7287°
perigee height: 567 km
apogee height: 639 km
right ascension of ascending node: 63.8541°
argument of perigee: 10.3621°
revolutions per day: 14.88266425
mean anomaly at epoch: 349.8653°
orbit number at epoch: 56224

The dashed part of the orbit path shows where the satellite is in the earth's shadow,  

DLR